owner,sensor,date,latitude,longitude,vertical_datum,wind_speed,wind_to_direction,wind_speed_of_gust,qcFlag 
TABS,ioos:station:wmo:42043:1,2003-11-01T00:09:00Z,28.9818,-94.9186,4.0,4.922936116,81.58968585,7.01,'11111222,11111222,11111222' 
TABS,ioos:station:wmo:42043:1,2003-11-01T00:39:00Z,28.9818,-94.9186,4.0,6.005206075,92.38635937,8.32,'11111222,11111222,11111222' 
TABS,ioos:station:wmo:42043:1,2003-11-01T01:09:00Z,28.9818,-94.9186,4.0,6.792260301,102.9317811,9.3,'11111222,11111222,11111222' 
TABS,ioos:station:wmo:42043:1,2003-11-01T01:39:00Z,28.9818,-94.9186,4.0,6.009326085,101.9086931,8.57,'11111222,11111222,11111222' 
TABS,ioos:station:wmo:42043:1,2003-11-01T02:09:00Z,28.9818,-94.9186,4.0,5.455346002,96.52617013,7.75,'11111222,11111222,11111222' 
TABS,ioos:station:wmo:42043:1,2003-11-01T02:39:00Z,28.9818,-94.9186,4.0,5.654166605,94.05714929,7.88,'11111222,11111222,11111222' 
TABS,ioos:station:wmo:42043:1,2003-11-01T03:09:00Z,28.9818,-94.9186,4.0,4.908818595,101.5163432,7.1,'11111222,11111222,11111222' 
TABS,ioos:station:wmo:42043:1,2003-11-01T03:39:00Z,28.9818,-94.9186,4.0,5.175760814,105.8089271,7.57,'11111222,11111222,11111222' 
TABS,ioos:station:wmo:42043:1,2003-11-01T04:09:00Z,28.9818,-94.9186,4.0,4.475019553,104.6266472,6.47,'11111222,11111222,11111222' 
TABS,ioos:station:wmo:42043:1,2003-11-01T04:39:00Z,28.9818,-94.9186,4.0,5.111966354,106.9465423,7.99,'11111222,11111222,11111222' 
TABS,ioos:station:wmo:42043:1,2003-11-01T05:09:00Z,28.9818,-94.9186,4.0,5.658524543,109.6201431,8.27,'11111222,11111222,11111222' 
TABS,ioos:station:wmo:42043:1,2003-11-01T05:39:00Z,28.9818,-94.9186,4.0,6.287829514,112.2417255,9.27,'11111222,11111222,11111222' 
TABS,ioos:station:wmo:42043:1,2003-11-01T06:09:00Z,28.9818,-94.9186,4.0,6.670832032,119.255174,9.46,'11111222,11111222,11111222' 
TABS,ioos:station:wmo:42043:1,2003-11-01T06:39:00Z,28.9818,-94.9186,4.0,6.208590822,121.565529,8.89,'11111222,11111222,11111222' 
TABS,ioos:station:wmo:42043:1,2003-11-01T07:09:00Z,28.9818,-94.9186,4.0,5.858668791,117.0027728,8.85,'11111222,11111222,11111222' 
TABS,ioos:station:wmo:42043:1,2003-11-01T07:39:00Z,28.9818,-94.9186,4.0,5.773534446,116.6541716,8.38,'11111222,11111222,11111222' 
TABS,ioos:station:wmo:42043:1,2003-11-01T08:09:00Z,28.9818,-94.9186,4.0,5.707013229,115.7572178,7.91,'11111222,11111222,11111222' 
TABS,ioos:station:wmo:42043:1,2003-11-01T08:39:00Z,28.9818,-94.9186,4.0,5.197470539,115.5300592,8.09,'11111222,11111222,11111222' 
TABS,ioos:station:wmo:42043:1,2003-11-01T09:09:00Z,28.9818,-94.9186,4.0,4.751105135,109.8083282,7.03,'11111222,11111222,11111222' 
TABS,ioos:station:wmo:42043:1,2003-11-01T09:39:00Z,28.9818,-94.9186,4.0,4.731109806,109.1246795,6.81,'11111222,11111222,11111222' 
TABS,ioos:station:wmo:42043:1,2003-11-01T10:09:00Z,28.9818,-94.9186,4.0,4.906577218,110.0233871,7.46,'11111222,11111222,11111222' 
TABS,ioos:station:wmo:42043:1,2003-11-01T10:39:00Z,28.9818,-94.9186,4.0,4.721239244,105.4790229,7.04,'11111222,11111222,11111222' 
TABS,ioos:station:wmo:42043:1,2003-11-01T11:09:00Z,28.9818,-94.9186,4.0,4.677200017,99.72452705,6.67,'11111222,11111222,11111222' 
TABS,ioos:station:wmo:42043:1,2003-11-01T11:39:00Z,28.9818,-94.9186,4.0,4.657252409,104.9318032,6.41,'11111222,11111222,11111222' 
TABS,ioos:station:wmo:42043:1,2003-11-01T12:09:00Z,28.9818,-94.9186,4.0,4.422148799,105.0736858,6.54,'11111222,11111222,11111222' 
TABS,ioos:station:wmo:42043:1,2003-11-01T12:39:00Z,28.9818,-94.9186,4.0,3.932238548,101.7389647,6.09,'11111222,11111222,11111222' 
TABS,ioos:station:wmo:42043:1,2003-11-01T13:09:00Z,28.9818,-94.9186,4.0,4.729333991,105.8292913,6.89,'11111222,11111222,11111222' 
TABS,ioos:station:wmo:42043:1,2003-11-01T13:39:00Z,28.9818,-94.9186,4.0,4.761354849,110.1479752,6.84,'11111222,11111222,11111222' 
TABS,ioos:station:wmo:42043:1,2003-11-01T14:09:00Z,28.9818,-94.9186,4.0,5.386770832,109.7472113,7.85,'11111222,11111222,11111222' 
TABS,ioos:station:wmo:42043:1,2003-11-01T14:39:00Z,28.9818,-94.9186,4.0,5.441415257,106.7702245,8.77,'11111222,11111222,11111222' 
TABS,ioos:station:wmo:42043:1,2003-11-01T15:09:00Z,28.9818,-94.9186,4.0,5.303932503,107.4446241,7.63,'11111222,11111222,11111222' 
TABS,ioos:station:wmo:42043:1,2003-11-01T15:39:00Z,28.9818,-94.9186,4.0,5.522771044,103.5082282,7.84,'11111222,11111222,11111222' 
TABS,ioos:station:wmo:42043:1,2003-11-01T16:09:00Z,28.9818,-94.9186,4.0,5.709089244,101.7236515,8.17,'11111222,11111222,11111222' 
TABS,ioos:station:wmo:42043:1,2003-11-01T16:39:00Z,28.9818,-94.9186,4.0,6.106594796,102.5800835,8.74,'11111222,11111222,11111222' 
TABS,ioos:station:wmo:42043:1,2003-11-01T17:09:00Z,28.9818,-94.9186,4.0,5.539819492,104.6386652,7.88,'11111222,11111222,11111222' 
TABS,ioos:station:wmo:42043:1,2003-11-01T17:39:00Z,28.9818,-94.9186,4.0,6.366733857,96.94682576,8.91,'11111222,11111222,11111222' 
TABS,ioos:station:wmo:42043:1,2003-11-01T18:09:00Z,28.9818,-94.9186,4.0,6.665200672,98.02109196,8.9,'11111222,11111222,11111222' 
TABS,ioos:station:wmo:42043:1,2003-11-01T18:39:00Z,28.9818,-94.9186,4.0,6.944501422,92.06349301,9.43,'11111222,11111222,11111222' 
TABS,ioos:station:wmo:42043:1,2003-11-01T19:09:00Z,28.9818,-94.9186,4.0,7.122274917,91.44859787,9.5,'11111222,11111222,11111222' 
TABS,ioos:station:wmo:42043:1,2003-11-01T19:39:00Z,28.9818,-94.9186,4.0,7.191001321,90.9565877,9.61,'11111222,11111222,11111222' 
TABS,ioos:station:wmo:42043:1,2003-11-01T20:09:00Z,28.9818,-94.9186,4.0,6.410499201,89.28453795,9.64,'11111222,11111222,11111222' 
TABS,ioos:station:wmo:42043:1,2003-11-01T20:39:00Z,28.9818,-94.9186,4.0,6.019975083,85.3307957,8.83,'11111222,11111222,11111222' 
TABS,ioos:station:wmo:42043:1,2003-11-01T21:09:00Z,28.9818,-94.9186,4.0,7.121811567,86.69926569,10.1,'11111222,11111222,11111222' 
TABS,ioos:station:wmo:42043:1,2003-11-01T21:39:00Z,28.9818,-94.9186,4.0,6.883443905,86.4180609,10.19,'11111222,11111222,11111222' 
TABS,ioos:station:wmo:42043:1,2003-11-01T22:09:00Z,28.9818,-94.9186,4.0,6.003340737,86.17916462,8.65,'11111222,11111222,11111222' 
TABS,ioos:station:wmo:42043:1,2003-11-01T22:39:00Z,28.9818,-94.9186,4.0,5.950899092,93.46864207,8.78,'11111222,11111222,11111222' 
TABS,ioos:station:wmo:42043:1,2003-11-01T23:09:00Z,28.9818,-94.9186,4.0,6.276185147,96.95557235,8.85,'11111222,11111222,11111222' 
TABS,ioos:station:wmo:42043:1,2003-11-01T23:39:00Z,28.9818,-94.9186,4.0,6.898441853,102.3039818,9.85,'11111222,11111222,11111222' 
TABS,ioos:station:wmo:42043:1,2003-11-02T00:09:00Z,28.9818,-94.9186,4.0,6.381739575,101.6624777,9.32,'11111222,11111222,11111222' 
TABS,ioos:station:wmo:42043:1,2003-11-02T00:39:00Z,28.9818,-94.9186,4.0,6.183283917,99.96543511,9.05,'11111222,11111222,11111222' 
TABS,ioos:station:wmo:42043:1,2003-11-02T01:09:00Z,28.9818,-94.9186,4.0,6.070667179,104.0137408,9.43,'11111222,11111222,11111222' 
TABS,ioos:station:wmo:42043:1,2003-11-02T01:39:00Z,28.9818,-94.9186,4.0,5.945258615,106.5150105,8.71,'11111222,11111222,11111222' 
TABS,ioos:station:wmo:42043:1,2003-11-02T02:09:00Z,28.9818,-94.9186,4.0,5.722700412,102.822408,8.09,'11111222,11111222,11111222' 
TABS,ioos:station:wmo:42043:1,2003-11-02T02:39:00Z,28.9818,-94.9186,4.0,5.548062725,102.8092345,8.05,'11111222,11111222,11111222' 
TABS,ioos:station:wmo:42043:1,2003-11-02T03:09:00Z,28.9818,-94.9186,4.0,5.563245456,105.5355214,7.91,'11111222,11111222,11111222' 
TABS,ioos:station:wmo:42043:1,2003-11-02T03:39:00Z,28.9818,-94.9186,4.0,5.060533569,107.3611591,7.62,'11111222,11111222,11111222' 
TABS,ioos:station:wmo:42043:1,2003-11-02T04:09:00Z,28.9818,-94.9186,4.0,5.490400714,106.2898073,8.01,'11111222,11111222,11111222' 
TABS,ioos:station:wmo:42043:1,2003-11-02T04:39:00Z,28.9818,-94.9186,4.0,5.571965542,108.6304302,7.86,'11111222,11111222,11111222' 
TABS,ioos:station:wmo:42043:1,2003-11-02T05:09:00Z,28.9818,-94.9186,4.0,5.322903343,105.4726391,7.91,'11111222,11111222,11111222' 
TABS,ioos:station:wmo:42043:1,2003-11-02T05:39:00Z,28.9818,-94.9186,4.0,5.330938004,104.114833,8.27,'11111222,11111222,11111222' 
TABS,ioos:station:wmo:42043:1,2003-11-02T06:09:00Z,28.9818,-94.9186,4.0,5.380046468,109.5467429,7.72,'11111222,11111222,11111222' 
TABS,ioos:station:wmo:42043:1,2003-11-02T06:39:00Z,28.9818,-94.9186,4.0,5.097842681,109.0039992,7.56,'11111222,11111222,11111222' 
TABS,ioos:station:wmo:42043:1,2003-11-02T07:09:00Z,28.9818,-94.9186,4.0,5.251675923,115.24794,7.89,'11111222,11111222,11111222' 
TABS,ioos:station:wmo:42043:1,2003-11-02T07:39:00Z,28.9818,-94.9186,4.0,5.734744981,117.8612683,8.05,'11111222,11111222,11111222' 
TABS,ioos:station:wmo:42043:1,2003-11-02T08:09:00Z,28.9818,-94.9186,4.0,5.748825967,118.125606,8.23,'11111222,11111222,11111222' 
TABS,ioos:station:wmo:42043:1,2003-11-02T08:39:00Z,28.9818,-94.9186,4.0,5.890551757,115.6518894,8.58,'11111222,11111222,11111222' 
TABS,ioos:station:wmo:42043:1,2003-11-02T09:09:00Z,28.9818,-94.9186,4.0,5.677059098,118.0550319,8.73,'11111222,11111222,11111222' 
TABS,ioos:station:wmo:42043:1,2003-11-02T09:39:00Z,28.9818,-94.9186,4.0,5.470584978,111.7823308,8.15,'11111222,11111222,11111222' 
TABS,ioos:station:wmo:42043:1,2003-11-02T10:09:00Z,28.9818,-94.9186,4.0,5.206313475,113.0689042,7.84,'11111222,11111222,11111222' 
TABS,ioos:station:wmo:42043:1,2003-11-02T10:39:00Z,28.9818,-94.9186,4.0,5.001199856,117.8976267,7.55,'11111222,11111222,11111222' 
TABS,ioos:station:wmo:42043:1,2003-11-02T11:09:00Z,28.9818,-94.9186,4.0,4.592885803,116.5096207,6.99,'11111222,11111222,11111222' 
TABS,ioos:station:wmo:42043:1,2003-11-02T11:39:00Z,28.9818,-94.9186,4.0,5.215448207,121.4351208,8.51,'11111222,11111222,11111222' 
TABS,ioos:station:wmo:42043:1,2003-11-02T12:09:00Z,28.9818,-94.9186,4.0,4.638965402,119.4388418,6.67,'11111222,11111222,11111222' 
TABS,ioos:station:wmo:42043:1,2003-11-02T12:39:00Z,28.9818,-94.9186,4.0,5.055294255,115.0446439,7.13,'11111222,11111222,11111222' 
TABS,ioos:station:wmo:42043:1,2003-11-02T13:09:00Z,28.9818,-94.9186,4.0,5.054552404,120.1670335,7.37,'11111222,11111222,11111222' 
TABS,ioos:station:wmo:42043:1,2003-11-02T13:39:00Z,28.9818,-94.9186,4.0,4.795518741,123.2596235,7.27,'11111222,11111222,11111222' 
TABS,ioos:station:wmo:42043:1,2003-11-02T14:09:00Z,28.9818,-94.9186,4.0,5.261368643,125.5633341,8.16,'11111222,11111222,11111222' 
TABS,ioos:station:wmo:42043:1,2003-11-02T14:39:00Z,28.9818,-94.9186,4.0,4.918699015,121.3636498,7.29,'11111222,11111222,11111222' 
TABS,ioos:station:wmo:42043:1,2003-11-02T15:09:00Z,28.9818,-94.9186,4.0,4.135516896,112.1619628,6.16,'11111222,11111222,11111222' 
TABS,ioos:station:wmo:42043:1,2003-11-02T15:39:00Z,28.9818,-94.9186,4.0,3.655571091,113.1989572,5.41,'11111222,11111222,11111222' 
TABS,ioos:station:wmo:42043:1,2003-11-02T16:09:00Z,28.9818,-94.9186,4.0,4.000812417,118.6793901,5.75,'11111222,11111222,11111222' 
TABS,ioos:station:wmo:42043:1,2003-11-02T16:39:00Z,28.9818,-94.9186,4.0,5.028637987,120.3388022,7.19,'11111222,11111222,11111222' 
TABS,ioos:station:wmo:42043:1,2003-11-02T17:09:00Z,28.9818,-94.9186,4.0,5.087808959,118.5299258,7.12,'11111222,11111222,11111222' 
TABS,ioos:station:wmo:42043:1,2003-11-02T17:39:00Z,28.9818,-94.9186,4.0,4.984586242,122.7977284,6.89,'11111222,11111222,11111222' 
TABS,ioos:station:wmo:42043:1,2003-11-02T18:09:00Z,28.9818,-94.9186,4.0,4.768060402,120.2221885,6.68,'11111222,11111222,11111222' 
TABS,ioos:station:wmo:42043:1,2003-11-02T18:39:00Z,28.9818,-94.9186,4.0,4.60419374,118.4022501,6.77,'11111222,11111222,11111222' 
TABS,ioos:station:wmo:42043:1,2003-11-02T19:09:00Z,28.9818,-94.9186,4.0,4.280292046,111.9509218,6.52,'11111222,11111222,11111222' 
TABS,ioos:station:wmo:42043:1,2003-11-02T19:39:00Z,28.9818,-94.9186,4.0,3.810577384,108.6730665,6.01,'11111222,11111222,11111222' 
TABS,ioos:station:wmo:42043:1,2003-11-02T20:09:00Z,28.9818,-94.9186,4.0,3.201452795,96.63705421,5.54,'11111222,11111222,11111222' 
TABS,ioos:station:wmo:42043:1,2003-11-02T20:39:00Z,28.9818,-94.9186,4.0,3.573583636,92.56657574,5.62,'11111222,11111222,11111222' 
TABS,ioos:station:wmo:42043:1,2003-11-02T21:09:00Z,28.9818,-94.9186,4.0,3.892518465,87.93841461,5.85,'11111222,11111222,11111222' 
TABS,ioos:station:wmo:42043:1,2003-11-02T21:39:00Z,28.9818,-94.9186,4.0,4.080196074,89.43787506,6.48,'11111222,11111222,11111222' 
TABS,ioos:station:wmo:42043:1,2003-11-02T22:09:00Z,28.9818,-94.9186,4.0,4.122729678,87.91449352,5.92,'11111222,11111222,11111222' 
TABS,ioos:station:wmo:42043:1,2003-11-02T22:39:00Z,28.9818,-94.9186,4.0,4.220426519,90.81499606,6.26,'11111222,11111222,11111222' 
TABS,ioos:station:wmo:42043:1,2003-11-02T23:09:00Z,28.9818,-94.9186,4.0,4.531589125,88.48216851,6.71,'11111222,11111222,11111222' 
TABS,ioos:station:wmo:42043:1,2003-11-02T23:39:00Z,28.9818,-94.9186,4.0,4.954452543,87.57031144,7.42,'11111222,11111222,11111222' 
TABS,ioos:station:wmo:42043:1,2003-11-03T00:09:00Z,28.9818,-94.9186,4.0,5.442067622,88.42013612,7.52,'11111222,11111222,11111222' 
TABS,ioos:station:wmo:42043:1,2003-11-03T00:39:00Z,28.9818,-94.9186,4.0,5.87132864,85.11438794,8.03,'11111222,11111222,11111222' 
TABS,ioos:station:wmo:42043:1,2003-11-03T01:09:00Z,28.9818,-94.9186,4.0,5.833429523,91.96519571,8.38,'11111222,11111222,11111222' 
TABS,ioos:station:wmo:42043:1,2003-11-03T01:39:00Z,28.9818,-94.9186,4.0,5.430745805,90.94998555,7.72,'11111222,11111222,11111222' 
TABS,ioos:station:wmo:42043:1,2003-11-03T02:09:00Z,28.9818,-94.9186,4.0,5.7084236,93.11343305,8.24,'11111222,11111222,11111222' 
TABS,ioos:station:wmo:42043:1,2003-11-03T02:39:00Z,28.9818,-94.9186,4.0,5.718216505,96.62829082,7.76,'11111222,11111222,11111222' 
TABS,ioos:station:wmo:42043:1,2003-11-03T03:09:00Z,28.9818,-94.9186,4.0,5.749173854,96.69277563,8.19,'11111222,11111222,11111222' 
TABS,ioos:station:wmo:42043:1,2003-11-03T03:39:00Z,28.9818,-94.9186,4.0,6.021727327,98.2112402,8.33,'11111222,11111222,11111222' 
TABS,ioos:station:wmo:42043:1,2003-11-03T04:09:00Z,28.9818,-94.9186,4.0,6.250479982,100.7889815,8.68,'11111222,11111222,11111222' 
TABS,ioos:station:wmo:42043:1,2003-11-03T04:39:00Z,28.9818,-94.9186,4.0,6.012071191,96.78262013,8.87,'11111222,11111222,11111222' 
TABS,ioos:station:wmo:42043:1,2003-11-03T05:09:00Z,28.9818,-94.9186,4.0,5.317518218,98.43526546,7.6,'11111222,11111222,11111222' 
TABS,ioos:station:wmo:42043:1,2003-11-03T05:39:00Z,28.9818,-94.9186,4.0,5.343715936,106.6380069,7.62,'11111222,11111222,11111222' 
TABS,ioos:station:wmo:42043:1,2003-11-03T06:09:00Z,28.9818,-94.9186,4.0,4.707377189,111.8243813,6.88,'11111222,11111222,11111222' 
TABS,ioos:station:wmo:42043:1,2003-11-03T06:39:00Z,28.9818,-94.9186,4.0,4.441767666,119.3932393,6.94,'11111222,11111222,11111222' 
TABS,ioos:station:wmo:42043:1,2003-11-03T07:09:00Z,28.9818,-94.9186,4.0,4.359965596,123.8726471,6.79,'11111222,11111222,11111222' 
TABS,ioos:station:wmo:42043:1,2003-11-03T07:39:00Z,28.9818,-94.9186,4.0,3.456718097,122.3571241,5.39,'11111222,11111222,11111222' 
TABS,ioos:station:wmo:42043:1,2003-11-03T08:09:00Z,28.9818,-94.9186,4.0,4.376117,126.4512589,6.41,'11111222,11111222,11111222' 
TABS,ioos:station:wmo:42043:1,2003-11-03T08:39:00Z,28.9818,-94.9186,4.0,5.092582842,124.4393297,7.4,'11111222,11111222,11111222' 
TABS,ioos:station:wmo:42043:1,2003-11-03T09:09:00Z,28.9818,-94.9186,4.0,4.820632739,123.0640725,7.32,'11111222,11111222,11111222' 
TABS,ioos:station:wmo:42043:1,2003-11-03T09:39:00Z,28.9818,-94.9186,4.0,4.483793037,122.0599095,6.69,'11111222,11111222,11111222' 
TABS,ioos:station:wmo:42043:1,2003-11-03T10:09:00Z,28.9818,-94.9186,4.0,4.483793037,122.0599095,6.25,'11111222,11111222,11111222' 
TABS,ioos:station:wmo:42043:1,2003-11-03T10:39:00Z,28.9818,-94.9186,4.0,4.065329015,130.3111703,6.16,'11111222,11111222,11111222' 
TABS,ioos:station:wmo:42043:1,2003-11-03T11:09:00Z,28.9818,-94.9186,4.0,4.025232913,136.7116273,5.81,'11111222,11111222,11111222' 
TABS,ioos:station:wmo:42043:1,2003-11-03T11:39:00Z,28.9818,-94.9186,4.0,4.07293506,135.0003157,6.22,'11111222,11111222,11111222' 
TABS,ioos:station:wmo:42043:1,2003-11-03T12:09:00Z,28.9818,-94.9186,4.0,3.707141756,125.4481824,5.57,'11111222,11111222,11111222' 
TABS,ioos:station:wmo:42043:1,2003-11-03T12:39:00Z,28.9818,-94.9186,4.0,4.274295264,120.0445107,6.37,'11111222,11111222,11111222' 
TABS,ioos:station:wmo:42043:1,2003-11-03T13:09:00Z,28.9818,-94.9186,4.0,4.369038796,114.0427455,6.52,'11111222,11111222,11111222' 
TABS,ioos:station:wmo:42043:1,2003-11-03T13:39:00Z,28.9818,-94.9186,4.0,4.256218979,118.7934543,6.64,'11111222,11111222,11111222' 
TABS,ioos:station:wmo:42043:1,2003-11-03T14:09:00Z,28.9818,-94.9186,4.0,4.675307477,114.9210106,6.77,'11111222,11111222,11111222' 
TABS,ioos:station:wmo:42043:1,2003-11-03T14:39:00Z,28.9818,-94.9186,4.0,4.95307985,112.6825205,7.53,'11111222,11111222,11111222' 
TABS,ioos:station:wmo:42043:1,2003-11-03T15:09:00Z,28.9818,-94.9186,4.0,4.518849411,114.8640593,6.7,'11111222,11111222,11111222' 
TABS,ioos:station:wmo:42043:1,2003-11-03T15:39:00Z,28.9818,-94.9186,4.0,4.384392774,113.5249846,6.49,'11111222,11111222,11111222' 
TABS,ioos:station:wmo:42043:1,2003-11-03T16:09:00Z,28.9818,-94.9186,4.0,4.529602632,110.9561486,6.67,'11111222,11111222,11111222' 
TABS,ioos:station:wmo:42043:1,2003-11-03T16:39:00Z,28.9818,-94.9186,4.0,4.185606288,112.0305541,6.17,'11111222,11111222,11111222' 
TABS,ioos:station:wmo:42043:1,2003-11-03T17:09:00Z,28.9818,-94.9186,4.0,4.340046083,118.3368756,6.71,'11111222,11111222,11111222' 
TABS,ioos:station:wmo:42043:1,2003-11-03T17:39:00Z,28.9818,-94.9186,4.0,4.137692594,112.5989295,6.53,'11111222,11111222,11111222' 
TABS,ioos:station:wmo:42043:1,2003-11-03T18:09:00Z,28.9818,-94.9186,4.0,3.756926936,104.3325393,5.4,'11111222,11111222,11111222' 
TABS,ioos:station:wmo:42043:1,2003-11-03T18:39:00Z,28.9818,-94.9186,4.0,4.285615475,109.4923219,6.23,'11111222,11111222,11111222' 
TABS,ioos:station:wmo:42043:1,2003-11-03T19:09:00Z,28.9818,-94.9186,4.0,4.073720658,109.5028238,6.09,'11111222,11111222,11111222' 
TABS,ioos:station:wmo:42043:1,2003-11-03T19:39:00Z,28.9818,-94.9186,4.0,4.084617485,104.7510889,6.11,'11111222,11111222,11111222' 
TABS,ioos:station:wmo:42043:1,2003-11-03T20:09:00Z,28.9818,-94.9186,4.0,4.254092148,103.8733035,6.27,'11111222,11111222,11111222' 
TABS,ioos:station:wmo:42043:1,2003-11-03T20:39:00Z,28.9818,-94.9186,4.0,4.0988413,106.0033824,6.19,'11111222,11111222,11111222' 
TABS,ioos:station:wmo:42043:1,2003-11-03T21:09:00Z,28.9818,-94.9186,4.0,4.53841382,100.6665827,6.15,'11111222,11111222,11111222' 
TABS,ioos:station:wmo:42043:1,2003-11-03T21:39:00Z,28.9818,-94.9186,4.0,4.438468204,104.3497194,6.42,'11111222,11111222,11111222' 
TABS,ioos:station:wmo:42043:1,2003-11-03T22:09:00Z,28.9818,-94.9186,4.0,4.422148799,105.0736858,6.17,'11111222,11111222,11111222' 
TABS,ioos:station:wmo:42043:1,2003-11-03T22:39:00Z,28.9818,-94.9186,4.0,4.449325792,108.4760485,6.81,'11111222,11111222,11111222' 
TABS,ioos:station:wmo:42043:1,2003-11-03T23:09:00Z,28.9818,-94.9186,4.0,4.247363888,109.2458588,6.23,'11111222,11111222,11111222' 
TABS,ioos:station:wmo:42043:1,2003-11-03T23:39:00Z,28.9818,-94.9186,4.0,4.321539078,112.5896372,6.5,'11111222,11111222,11111222' 
TABS,ioos:station:wmo:42043:1,2003-11-04T00:09:00Z,28.9818,-94.9186,4.0,4.673435567,116.8395497,6.9,'11111222,11111222,11111222' 
TABS,ioos:station:wmo:42043:1,2003-11-04T00:39:00Z,28.9818,-94.9186,4.0,4.592439439,114.1655349,6.59,'11111222,11111222,11111222' 
TABS,ioos:station:wmo:42043:1,2003-11-04T01:09:00Z,28.9818,-94.9186,4.0,4.561633479,116.2845512,6.82,'11111222,11111222,11111222' 
TABS,ioos:station:wmo:42043:1,2003-11-04T01:39:00Z,28.9818,-94.9186,4.0,4.280292046,117.403531,6.29,'11111222,11111222,11111222' 
TABS,ioos:station:wmo:42043:1,2003-11-04T02:09:00Z,28.9818,-94.9186,4.0,3.724620786,125.8241338,5.66,'11111222,11111222,11111222' 
TABS,ioos:station:wmo:42043:1,2003-11-04T02:39:00Z,28.9818,-94.9186,4.0,4.12019417,126.3139814,6.05,'11111222,11111222,11111222' 
TABS,ioos:station:wmo:42043:1,2003-11-04T03:09:00Z,28.9818,-94.9186,4.0,3.423740644,129.5487773,5.14,'11111222,11111222,11111222' 
TABS,ioos:station:wmo:42043:1,2003-11-04T03:39:00Z,28.9818,-94.9186,4.0,3.132921959,141.740356,5.33,'11111222,11111222,11111222' 
TABS,ioos:station:wmo:42043:1,2003-11-04T04:09:00Z,28.9818,-94.9186,4.0,3.042449671,139.3990108,4.73,'11111222,11111222,11111222' 
TABS,ioos:station:wmo:42043:1,2003-11-04T04:39:00Z,28.9818,-94.9186,4.0,3.395997644,136.9094637,5.24,'11111222,11111222,11111222' 
TABS,ioos:station:wmo:42043:1,2003-11-04T05:09:00Z,28.9818,-94.9186,4.0,3.857512152,141.5260649,6.18,'11111222,11111222,11111222' 
TABS,ioos:station:wmo:42043:1,2003-11-04T05:39:00Z,28.9818,-94.9186,4.0,4.018768468,138.9350885,6.11,'11111222,11111222,11111222' 
TABS,ioos:station:wmo:42043:1,2003-11-04T06:09:00Z,28.9818,-94.9186,4.0,4.205258613,148.6159296,5.94,'11111222,11111222,11111222' 
TABS,ioos:station:wmo:42043:1,2003-11-04T06:39:00Z,28.9818,-94.9186,4.0,4.12043687,150.324388,6.18,'11111222,11111222,11111222' 
TABS,ioos:station:wmo:42043:1,2003-11-04T07:09:00Z,28.9818,-94.9186,4.0,4.003560915,154.715358,6.15,'11111222,11111222,11111222' 
TABS,ioos:station:wmo:42043:1,2003-11-04T07:39:00Z,28.9818,-94.9186,4.0,3.866574712,155.5563128,5.45,'11111222,11111222,11111222' 
TABS,ioos:station:wmo:42043:1,2003-11-04T08:09:00Z,28.9818,-94.9186,4.0,3.114883625,161.2744664,4.9,'11111222,11111222,11111222' 
TABS,ioos:station:wmo:42043:1,2003-11-04T08:39:00Z,28.9818,-94.9186,4.0,3.605010402,154.3592646,5.44,'11111222,11111222,11111222' 
TABS,ioos:station:wmo:42043:1,2003-11-04T09:09:00Z,28.9818,-94.9186,4.0,3.097628125,163.4958877,4.67,'11111222,11111222,11111222' 
TABS,ioos:station:wmo:42043:1,2003-11-04T09:39:00Z,28.9818,-94.9186,4.0,3.414937774,158.1676961,5.19,'11111222,11111222,11111222' 
TABS,ioos:station:wmo:42043:1,2003-11-04T10:09:00Z,28.9818,-94.9186,4.0,3.931539139,157.4140292,5.78,'11111222,11111222,11111222' 
TABS,ioos:station:wmo:42043:1,2003-11-04T10:39:00Z,28.9818,-94.9186,4.0,3.67392161,159.4442133,6.04,'11111222,11111222,11111222' 
TABS,ioos:station:wmo:42043:1,2003-11-04T11:09:00Z,28.9818,-94.9186,4.0,3.877692613,158.9945736,5.18,'11111222,11111222,11111222' 
TABS,ioos:station:wmo:42043:1,2003-11-04T11:39:00Z,28.9818,-94.9186,4.0,3.411539242,157.4191553,5.3,'11111222,11111222,11111222' 
TABS,ioos:station:wmo:42043:1,2003-11-04T12:09:00Z,28.9818,-94.9186,4.0,3.333616655,151.5132699,4.81,'11111222,11111222,11111222' 
TABS,ioos:station:wmo:42043:1,2003-11-04T12:39:00Z,28.9818,-94.9186,4.0,2.920222594,159.7657085,4.55,'11111222,11111222,11111222' 
TABS,ioos:station:wmo:42043:1,2003-11-04T13:09:00Z,28.9818,-94.9186,4.0,1.88663722,168.6903044,3.08,'11111222,11111222,11111222' 
TABS,ioos:station:wmo:42043:1,2003-11-04T13:39:00Z,28.9818,-94.9186,4.0,1.836981219,149.9459047,3.25,'11111222,11111222,11111222' 
TABS,ioos:station:wmo:42043:1,2003-11-04T14:09:00Z,28.9818,-94.9186,4.0,1.929170806,155.8266893,3.98,'11111222,11111222,11111222' 
TABS,ioos:station:wmo:42043:1,2003-11-04T14:39:00Z,28.9818,-94.9186,4.0,1.028834292,164.2078439,2.26,'11111222,11111222,11111222' 
TABS,ioos:station:wmo:42043:1,2003-11-04T15:09:00Z,28.9818,-94.9186,4.0,0.821522976,121.562159,2.07,'11111222,11111222,11111222' 
TABS,ioos:station:wmo:42043:1,2003-11-04T15:39:00Z,28.9818,-94.9186,4.0,1.797776404,122.2759898,2.96,'11111222,11111222,11111222' 
TABS,ioos:station:wmo:42043:1,2003-11-04T16:09:00Z,28.9818,-94.9186,4.0,1.880957203,125.0422684,3.23,'11111222,11111222,11111222' 
TABS,ioos:station:wmo:42043:1,2003-11-04T16:39:00Z,28.9818,-94.9186,4.0,2.025956564,116.0595013,3.49,'11111222,11111222,11111222' 
TABS,ioos:station:wmo:42043:1,2003-11-04T17:09:00Z,28.9818,-94.9186,4.0,2.612757164,111.5574498,3.94,'11111222,11111222,11111222' 
TABS,ioos:station:wmo:42043:1,2003-11-04T17:39:00Z,28.9818,-94.9186,4.0,2.196588264,115.0487716,3.61,'11111222,11111222,11111222' 
TABS,ioos:station:wmo:42043:1,2003-11-04T18:09:00Z,28.9818,-94.9186,4.0,2.871532692,115.5838049,4.27,'11111222,11111222,11111222' 
TABS,ioos:station:wmo:42043:1,2003-11-04T18:39:00Z,28.9818,-94.9186,4.0,2.509541791,115.237941,3.89,'11111222,11111222,11111222' 